Location: El Corozo
(10.5833°N, 66.9667°W)
Time: 20:38:16
(UTC+00:00)

BREEZE-M DEB (TANK) - Pass Details

Date: 23 May 2024
Orbit: 305 x 16111 km, 49.4° (Epoch: 20 June)

Event Time Altitude Azimuth Distance (km) Brightness Sun altitude
Exits shadow 08:31:11 23° 225° (SW) 6,020 7.0 -21.8°
Maximum altitude 08:43:40 70° 303° (WNW) 1,639 4.5 -19.1°
Drops below altitude 10° 08:48:47 10° 28° (NNE) 2,377 6.3 -18.0°
Sets 08:50:12 0° 32° (NNE) 2,948 7.0 -17.7°
